EDT,Max TemperatureF,Mean TemperatureF,Min TemperatureF,Max Dew PointF,MeanDew PointF,Min DewpointF,Max Humidity, Mean Humidity, Min Humidity, Max Sea Level PressureIn, Mean Sea Level PressureIn, Min Sea Level PressureIn, Max VisibilityMiles, Mean VisibilityMiles, Min VisibilityMiles, Max Wind SpeedMPH, Mean Wind SpeedMPH, Max Gust SpeedMPH,PrecipitationIn, CloudCover, Events, WindDirDegrees
2013-6-1,82,74,65,66,63,61,93,78,62,30.02,29.98,29.93,10,10,9,22,11,30,0.00,2,,216
2013-6-2,77,71,64,64,62,61,93,81,68,29.93,29.86,29.80,10,10,7,24,13,32,0.00,4,,210
2013-6-3,73,69,64,66,64,54,93,76,59,29.85,29.83,29.80,10,7,0,17,7,23,0.34,7,Rain-Thunderstorm,225
2013-6-4,75,66,57,53,45,41,77,54,31,30.08,29.98,29.86,10,10,10,21,10,25,0.00,3,,316
2013-6-5,71,62,53,55,46,40,87,60,33,30.19,30.14,30.09,10,10,10,16,7,20,0.00,4,,110
2013-6-6,71,63,54,59,53,46,93,69,44,30.14,30.10,30.02,10,10,6,18,9,23,T,5,Rain,125
2013-6-7,68,64,59,65,59,55,100,92,84,30.00,29.85,29.62,10,4,1,22,13,29,4.15,8,Rain,90
2013-6-8,75,65,55,66,60,53,93,81,68,30.04,29.76,29.52,10,7,2,22,10,29,0.43,6,Rain,255
2013-6-9,77,68,58,61,57,53,93,70,46,30.17,30.12,30.05,10,10,8,16,5,20,0.00,4,,216
2013-6-10,72,67,62,65,62,59,93,83,73,30.17,30.05,29.85,10,4,0,20,8,25,1.48,7,Fog-Rain,120
2013-6-11,79,73,66,67,65,56,100,81,61,29.85,29.72,29.60,10,7,1,21,11,26,0.32,6,Rain-Thunderstorm,220
2013-6-12,76,68,59,55,52,50,80,62,43,29.84,29.75,29.66,10,10,10,24,13,35,0.00,2,,308
2013-6-13,66,61,56,58,56,53,93,83,73,29.82,29.63,29.47,10,7,1,25,13,36,0.96,7,Rain,99
2013-6-14,72,63,53,56,52,48,93,71,49,29.84,29.64,29.48,10,8,2,25,12,37,0.15,7,Rain,360
2013-6-15,80,69,58,59,53,43,90,60,29,29.97,29.93,29.85,10,10,10,18,8,24,0.00,1,,297
2013-6-16,78,68,57,63,59,53,93,70,46,29.97,29.88,29.77,10,10,9,17,7,22,0.00,5,,225
2013-6-17,83,74,64,66,64,60,93,74,55,29.90,29.87,29.83,10,10,8,18,8,24,0.00,3,,225
2013-6-18,79,71,62,67,64,59,93,78,62,29.90,29.86,29.82,10,6,0,17,6,21,0.19,6,Fog-Rain,120
2013-6-19,77,68,59,61,54,44,93,63,33,30.16,29.97,29.86,10,10,10,16,9,22,0.00,5,,9
2013-6-20,75,65,54,57,53,50,93,68,43,30.27,30.24,30.18,10,10,10,15,7,22,0.00,1,,209
2013-6-21,77,69,60,57,54,49,90,64,38,30.30,30.27,30.25,10,10,10,17,9,21,0.00,4,,217
2013-6-22,80,71,62,63,59,53,90,68,46,30.26,30.22,30.15,10,10,10,15,8,20,0.00,4,,209
2013-6-23,82,74,65,70,65,58,90,76,62,30.19,30.13,30.07,10,10,9,18,9,24,0.01,5,Rain,209
2013-6-24,92,82,71,73,69,62,93,74,55,30.07,30.01,29.94,10,9,1,20,8,28,0.00,6,,232
2013-6-25,90,80,69,70,66,62,84,64,44,29.98,29.88,29.78,10,10,10,20,8,25,0.00,3,,231
2013-6-26,87,80,73,69,67,65,87,69,51,29.82,29.80,29.75,10,10,10,17,9,22,0.00,5,,238
2013-6-27,82,77,71,72,69,67,93,81,69,29.79,29.72,29.60,10,9,2,21,8,30,0.10,6,Rain-Thunderstorm,147
2013-6-28,82,77,72,72,70,69,93,81,69,29.60,29.53,29.50,10,9,7,21,12,26,0.00,6,Rain,202
2013-6-29,79,74,69,70,68,66,90,79,67,29.71,29.60,29.48,10,10,8,20,10,24,0.01,5,Rain,206
2013-6-30,77,74,70,72,70,67,100,91,82,29.93,29.82,29.72,10,5,0,18,9,23,0.01,7,Fog-Rain,186